Location: 22
(39.7117°N, 89.5929°W)
Time: 18:31:04
(UTC-05:00)

Vanguard 3 - Pass Details

Date: 08 February 2023
Orbit: 508 x 3249 km, 33.4° (Epoch: 30 March)

Event Time Altitude Azimuth Distance (km) Brightness Sun altitude
Rises 17:34:32 0° 241° (WSW) 3,397 12.5 -2.3°
Reaches altitude 10° 17:36:38 10° 235° (SW) 2,692 11.4 -2.7°
Maximum altitude 17:42:58 50° 161° (SSE) 1,692 8.8 -3.9°
Drops below altitude 10° 17:54:08 10° 91° (E) 4,651 10.4 -6.0°
Enters shadow 17:56:15 - 90° (E) 5,297 10.7 -6.4°
Sets 17:58:58 0° 88° (E) 6,102 - -6.9°
